Weather History for Tulsa, OK

Change the Weather History Date:

Monday, May 27, 2013

  Actual Average Record
Temperature  
Mean Temperature 77 °F 72 °F  
Max Temperature 84 °F 82 °F 94 °F (1911)
Min Temperature 70 °F 62 °F 45 °F (1961)
Cooling Degree Days 12 8  
Month to date cooling degree days 113 136  
Year to date cooling degree days 149 201  
Growing Degree Days 27 (Base 50)    
Moisture  
Dew Point 66 °F    
Average Humidity 73    
Maximum Humidity 90    
Minimum Humidity 55    
Precipitation  
Precipitation 0.00 in 0.19 in 6.95 in (1984)
Month to date precipitation 2.62 5.16  
Year to date precipitation 11.79 15.75  
Sea Level Pressure  
Sea Level Pressure 29.81 in    
Wind  
Wind Speed 19 mph (South)    
Max Wind Speed 31 mph    
Max Gust Speed 40 mph    
Visibility 9 miles    
Events      
T = Trace of Precipitation, MM = Missing Value Source: NWS Daily Summary

Daily Weather History Graph

Daily Weather History Graph

Search for Another Location

Airport:

Trip Planner

Search our weather history database for the weather conditions in past years. The results will help you decide how hot, cold, wet, or windy it might be!

Date:

Astronomy

May. 27, 2013 Rise Set
Actual Time 6:09 AM CDT 8:32 PM CDT
Civil Twilight 5:40 AM CDT 9:01 PM CDT
Nautical Twilight 5:03 AM CDT 9:38 PM CDT
Astronomical Twilight 4:23 AM CDT 10:18 PM CDT
Moon 11:14 PM CDT (5/27) 8:46 AM CDT (5/27)
Length of Visible Light 15h 21m
Length of Day
14h 22m
Waning Gibbous, 91% of the Moon is Illuminated
May 27
Waning Gibbous
May 31
Last Quarter
Jun 8
New
Jun 16
First Quarter
Jun 23
Full

Hourly Weather History & Observations

Time (CDT) Temp. Heat Index Dew Point Humidity Pressure Visibility Wind Dir Wind Speed Gust Speed Precip Events Conditions
12:53 AM 72.0 °F - 63.0 °F 73% 29.91 in 10.0 mi SSE 15.0 mph - N/A   Clear
1:53 AM 71.1 °F - 63.0 °F 75% 29.87 in 10.0 mi SSE 12.7 mph - N/A   Clear
2:53 AM 71.1 °F - 64.9 °F 81% 29.86 in 9.0 mi SSE 11.5 mph - N/A   Clear
3:53 AM 70.0 °F - 64.9 °F 84% 29.85 in 9.0 mi SSE 12.7 mph - N/A   Clear
4:53 AM 70.0 °F - 66.0 °F 87% 29.85 in 8.0 mi SSE 10.4 mph - N/A   Clear
5:53 AM 71.1 °F - 66.9 °F 87% 29.86 in 7.0 mi South 10.4 mph - N/A   Partly Cloudy
6:53 AM 71.1 °F - 68.0 °F 90% 29.88 in 6.0 mi South 8.1 mph - N/A   Partly Cloudy
7:39 AM 73.0 °F - 68.0 °F 84% 29.90 in 7.0 mi South 11.5 mph - N/A   Mostly Cloudy
7:53 AM 73.9 °F - 68.0 °F 82% 29.87 in 7.0 mi South 11.5 mph - N/A   Mostly Cloudy
8:12 AM 73.9 °F - 68.0 °F 82% 29.88 in 8.0 mi South 12.7 mph - N/A   Scattered Clouds
8:53 AM 77.0 °F - 68.0 °F 74% 29.84 in 9.0 mi South 18.4 mph 25.3 mph N/A   Clear
9:53 AM 80.1 °F 82.3 °F 66.9 °F 64% 29.83 in 10.0 mi South 23.0 mph 27.6 mph N/A   Clear
10:53 AM 82.0 °F 84.5 °F 66.9 °F 60% 29.83 in 10.0 mi South 18.4 mph 29.9 mph N/A   Clear
11:53 AM 82.9 °F 85.4 °F 66.9 °F 58% 29.82 in 10.0 mi South 25.3 mph 33.4 mph N/A   Scattered Clouds
12:53 PM 82.9 °F 85.8 °F 68.0 °F 60% 29.80 in 10.0 mi South 23.0 mph 35.7 mph N/A   Mostly Cloudy
1:53 PM 82.9 °F 85.4 °F 66.9 °F 58% 29.80 in 10.0 mi South 26.5 mph 34.5 mph N/A   Mostly Cloudy
2:53 PM 82.0 °F 84.5 °F 66.9 °F 60% 29.78 in 10.0 mi South 26.5 mph 33.4 mph N/A   Mostly Cloudy
3:53 PM 82.9 °F 85.4 °F 66.9 °F 58% 29.76 in 10.0 mi South 24.2 mph 32.2 mph N/A   Overcast
4:53 PM 84.0 °F 86.5 °F 66.9 °F 56% 29.74 in 10.0 mi South 25.3 mph 33.4 mph N/A   Overcast
5:53 PM 82.9 °F 85.0 °F 66.0 °F 56% 29.73 in 10.0 mi South 26.5 mph 33.4 mph N/A   Mostly Cloudy
6:53 PM 81.0 °F 83.0 °F 66.0 °F 60% 29.72 in 10.0 mi South 26.5 mph 38.0 mph N/A   Mostly Cloudy
7:53 PM 80.1 °F 82.3 °F 66.9 °F 64% 29.71 in 9.0 mi South 16.1 mph 25.3 mph N/A   Overcast
8:53 PM 80.1 °F 82.3 °F 66.9 °F 64% 29.73 in 10.0 mi South 20.7 mph 31.1 mph N/A   Overcast
9:53 PM 79.0 °F - 66.0 °F 64% 29.72 in 9.0 mi South 26.5 mph 32.2 mph N/A   Partly Cloudy
10:53 PM 78.1 °F - 66.0 °F 66% 29.71 in 10.0 mi South 25.3 mph 32.2 mph N/A   Clear
11:53 PM 77.0 °F - 66.0 °F 69% 29.68 in 10.0 mi SSE 21.9 mph 29.9 mph N/A   Clear